RH
100 100 100 100 99 99 100 99 101 99 81 57 43 38 35 38 40 35 31 28 27 25 24 26 28 29 27 23 20 22 20 24 43 62 62 31 12 19 19 19 14 10 13 17 33 35 31 41 44 44 46 45 41 45 68 77 77 92 96 95 97 96 94 86 82 78 75 80 81 83 81 75 74 81 78 74 79 69 63 58 42 42 42 39 41 46 56 58
100 100 100 100 99 97 99 100 100 93 75 60 50 42 36 35 32 26 25 25 26 25 25 27 28 31 29 23 22 22 25 43 66 68 40 10 16 30 23 21 18 12 11 18 35 38 32 37 42 46 46 43 39 41 65 77 74 91 95 93 98 89 81 77 74 71 69 76 80 80 80 74 71 75 76 78 79 68 62 50 42 47 42 41 39 40 48 49
100 100 99 98 99 98 98 97 96 83 65 61 56 48 44 36 26 21 22 22 24 24 25 27 28 31 30 26 22 24 46 67 67 53 28 12 16 23 29 27 19 16 11 15 33 40 33 33 37 41 39 35 34 38 62 81 82 86 88 96 96 73 64 63 71 80 70 69 77 75 73 72 65 62 72 78 71 69 71 52 43 52 45 43 41 38 42 41
99 100 99 98 98 98 96 90 89 76 59 59 57 53 48 36 25 21 22 21 21 23 25 27 29 30 28 26 23 36 68 71 49 34 26 22 13 12 26 28 22 21 12 11 27 37 34 31 31 30 30 30 30 37 60 81 81 77 77 87 83 64 60 55 64 80 64 60 71 69 70 72 61 59 70 70 66 77 85 62 45 49 46 43 42 40 40 39
100 100 99 100 99 99 95 81 73 67 58 57 55 52 46 36 28 24 24 22 21 23 26 29 30 28 28 25 26 53 73 55 35 28 22 20 15 13 22 24 23 21 13 13 22 30 33 32 28 23 24 26 26 34 56 68 62 66 68 67 65 56 56 51 54 66 57 55 65 65 68 65 59 65 68 67 75 82 80 60 41 42 44 41 41 40 39 39
99 100 99 100 99 99 97 82 68 61 57 55 53 49 42 36 32 28 25 23 23 23 27 33 32 29 28 22 29 57 63 39 26 24 20 18 20 21 22 22 21 19 15 16 20 25 31 33 28 23 23 23 24 26 44 56 51 65 71 58 57 52 48 49 49 54 52 55 62 61 62 60 62 68 68 74 78 74 72 56 38 40 40 38 40 39 40 40
86 94 99 100 100 99 95 84 71 62 57 52 49 43 36 34 33 30 25 24 23 22 30 36 36 33 25 27 47 63 56 36 22 18 15 11 16 22 25 24 21 19 17 17 21 24 32 33 25 22 22 21 24 21 32 48 46 57 66 57 56 49 43 47 50 51 50 55 56 55 62 65 67 67 69 75 68 64 69 50 34 39 37 38 40 38 41 40
70 80 90 94 95 91 83 75 67 60 56 51 45 37 34 33 32 31 26 24 22 24 34 37 43 39 24 38 57 53 46 37 23 15 11 6 8 14 20 22 20 19 17 18 20 25 33 30 22 20 21 20 21 20 29 53 54 46 56 62 55 44 37 45 57 56 50 52 51 56 67 68 71 74 76 75 62 59 61 43 34 38 37 39 40 39 41 39
64 69 75 81 82 78 71 66 62 57 51 47 41 34 33 32 33 32 26 24 22 28 35 37 46 37 29 54 58 37 31 29 20 13 8 5 5 7 13 16 17 18 18 19 19 26 33 26 18 16 18 17 17 17 24 52 60 43 51 59 48 40 37 47 62 57 49 52 55 63 70 72 73 76 83 79 65 59 49 37 36 37 38 39 39 40 40 39
62 65 68 70 71 70 67 64 62 57 46 39 37 34 33 33 33 30 25 23 25 31 34 40 45 31 40 66 56 33 25 21 20 15 9 8 7 7 13 13 14 17 19 21 22 28 33 25 15 12 14 14 15 17 15 32 43 36 42 45 39 41 43 52 59 52 52 58 64 71 76 77 67 68 86 79 69 67 47 36 38 36 39 39 37 39 38 37
59 61 63 65 65 63 63 64 62 54 42 35 34 34 34 33 31 27 25 24 27 32 33 39 37 29 49 63 48 32 22 20 22 18 16 14 11 10 14 13 12 17 22 26 29 30 31 24 14 11 13 13 13 15 13 18 25 27 33 37 43 46 49 56 54 50 57 64 72 78 79 74 62 68 81 65 64 72 47 35 39 36 39 39 37 38 37 36
54 55 56 58 58 55 53 57 55 46 38 35 34 35 34 32 28 25 25 25 28 32 33 37 28 30 54 56 42 29 18 21 21 17 17 15 12 13 15 14 11 18 26 29 28 25 22 19 14 13 12 13 13 14 16 15 17 22 24 34 46 50 58 59 49 49 58 67 70 70 74 76 70 75 75 55 61 72 48 34 37 36 37 37 36 37 37 35
51 51 51 51 51 49 45 45 46 40 35 35 34 33 33 30 26 25 26 25 28 30 32 31 21 36 61 50 29 16 12 18 20 17 16 13 13 14 16 15 11 17 23 25 22 16 15 14 12 13 11 12 14 14 15 13 15 19 19 29 41 55 70 64 52 49 57 67 59 59 80 85 76 78 76 60 59 63 47 35 35 34 35 35 34 36 36 33
51 50 48 47 46 44 42 40 41 37 32 32 32 32 29 26 25 26 25 25 29 31 30 23 21 51 68 42 18 12 15 18 19 19 16 13 13 12 16 15 12 15 17 20 19 13 11 11 10 12 11 12 13 13 14 13 16 18 19 24 34 57 73 68 63 55 56 65 49 57 88 86 75 79 77 66 65 61 43 34 36 33 32 34 33 34 34 32
49 48 46 46 43 41 39 38 39 35 31 29 29 29 26 25 25 25 26 27 30 28 26 20 29 61 61 31 16 14 17 19 18 18 17 17 15 13 16 16 14 14 15 18 16 13 11 10 11 13 13 13 13 15 17 16 17 18 24 27 29 51 66 67 76 66 58 60 46 58 87 81 71 73 69 63 66 63 48 37 34 33 32 32 33 32 33 31
45 44 44 44 43 40 37 37 36 32 29 27 28 27 25 26 24 23 27 29 30 24 27 33 37 51 43 22 19 17 16 16 15 16 17 18 17 15 15 16 16 15 15 16 13 13 11 11 13 13 14 14 14 17 18 20 21 19 26 30 27 44 61 66 77 71 56 54 47 56 78 77 68 70 70 63 61 65 62 47 32 32 32 31 34 32 31 32
42 41 41 43 42 41 38 37 34 29 26 26 27 26 25 26 23 23 24 23 24 20 27 36 34 38 32 19 20 19 16 13 13 15 15 16 16 13 13 14 15 15 15 14 13 13 12 13 15 14 14 15 15 17 21 27 28 25 25 26 25 38 53 58 68 67 54 50 48 50 64 69 63 70 78 69 65 69 71 65 52 45 39 32 34 34 32 32
40 39 39 40 40 40 38 37 33 28 25 26 27 27 28 30 25 26 30 27 30 34 34 33 36 43 35 24 22 18 16 13 12 14 13 14 14 12 12 13 13 14 14 14 14 14 13 14 14 15 15 15 15 16 24 28 25 25 26 23 28 39 44 49 64 65 51 45 49 52 59 63 59 66 78 73 67 71 75 80 75 67 59 44 33 33 35 31
40 38 37 37 37 38 37 36 35 28 25 26 26 30 40 45 37 35 39 38 39 45 40 33 39 42 28 19 18 14 14 13 11 14 13 13 13 13 12 12 11 12 14 16 16 15 14 15 16 17 16 14 15 15 19 20 17 20 22 19 28 41 38 41 56 52 40 44 53 56 59 63 62 63 72 71 65 69 76 80 80 79 77 64 43 32 33 33
39 37 36 35 34 35 35 36 36 29 27 28 26 36 49 49 43 40 41 41 39 34 28 24 29 29 18 13 12 11 12 11 12 14 13 12 13 15 14 12 12 12 14 15 16 15 13 17 19 16 15 12 11 12 13 14 13 13 16 14 20 34 36 37 47 40 33 49 60 56 56 61 62 63 67 69 66 69 76 80 84 86 83 78 63 42 33 33
39 36 35 33 33 33 34 36 37 33 31 30 29 39 45 34 29 30 30 33 34 29 26 22 21 21 17 11 9 10 12 12 14 14 13 12 12 18 18 14 15 17 15 13 13 13 13 18 18 13 11 10 8 10 10 11 12 11 13 14 14 27 37 34 39 37 31 47 57 51 57 62 59 64 68 68 69 72 78 81 83 85 84 84 78 62 43 32
38 36 33 32 31 31 33 35 38 36 31 33 38 38 34 26 20 19 19 23 24 23 26 25 20 16 13 11 10 11 14 16 16 14 12 12 13 19 18 15 17 18 15 13 12 14 17 17 15 11 9 9 8 8 9 9 10 11 13 14 14 27 42 36 32 36 32 42 52 49 55 60 59 66 67 68 73 77 79 79 78 79 83 86 81 74 61 37
38 35 32 31 29 29 33 34 37 38 32 36 44 35 27 23 17 15 19 22 21 16 18 21 19 14 11 11 11 12 14 15 15 14 12 12 14 17 16 16 18 16 14 14 14 16 18 16 11 11 9 8 9 8 9 9 9 11 12 16 17 23 37 37 32 32 27 34 45 46 53 59 67 74 68 68 77 79 80 81 81 79 82 88 79 71 69 48
35 33 31 30 28 28 31 31 33 34 29 30 34 26 22 21 17 16 19 21 22 16 12 15 14 11 10 10 11 12 14 13 11 12 12 12 14 14 15 16 16 16 15 12 12 13 14 12 9 10 10 9 10 9 9 10 11 11 11 15 18 18 22 27 30 28 30 45 44 40 59 71 71 75 70 72 80 81 83 85 86 85 84 88 81 70 69 59
34 33 31 29 28 26 28 31 30 27 26 30 30 22 18 19 17 17 19 24 25 17 12 12 10 9 8 8 11 12 11 11 8 10 12 11 12 14 14 14 15 16 15 11 11 12 10 9 8 10 10 9 10 11 10 12 15 13 12 13 16 20 18 18 24 29 43 64 51 37 65 81 68 65 68 71 78 80 82 83 84 89 88 84 81 71 66 63
34 32 30 30 28 24 29 34 30 26 26 26 25 20 16 18 19 17 22 30 26 17 13 11 9 9 7 7 10 10 12 11 7 8 13 11 10 12 13 13 14 14 13 11 11 10 9 8 8 9 10 9 10 10 9 12 18 18 14 13 15 18 20 17 19 25 37 49 39 29 58 82 73 66 66 67 74 79 79 79 78 85 88 80 78 72 64 63
33 31 30 30 28 28 34 34 29 29 27 20 17 17 15 17 17 17 29 40 29 15 11 10 8 8 7 7 7 10 13 11 7 9 12 11 10 11 14 14 13 12 10 11 14 13 8 8 9 9 9 9 10 11 10 11 19 21 15 14 18 17 18 18 17 21 23 27 32 29 47 76 76 64 63 67 78 83 80 79 76 77 80 74 72 71 62 58
31 30 29 30 29 29 32 35 36 35 27 19 16 16 16 17 17 19 37 47 29 12 10 9 8 8 7 7 7 9 11 8 9 12 10 9 10 10 14 14 11 11 8 11 18 14 8 9 9 9 9 9 9 9 10 13 18 20 14 13 16 17 18 17 17 19 16 25 43 39 40 67 75 64 63 69 79 85 83 81 76 70 70 68 67 66 60 55
29 29 29 29 28 27 30 38 43 36 25 21 19 18 16 16 18 25 41 44 22 9 11 9 9 9 7 8 8 8 8 6 10 12 9 8 9 9 12 12 9 10 8 9 15 12 9 10 9 9 10 9 10 9 9 15 18 16 14 13 12 15 16 14 17 20 18 26 43 43 41 60 77 75 70 72 78 80 78 77 75 68 64 63 61 60 59 57
27 28 28 28 29 32 37 38 33 27 24 24 21 18 17 17 25 38 45 35 16 9 11 8 8 9 8 9 10 9 8 7 8 10 9 8 8 8 9 8 7 9 10 9 10 11 10 10 10 9 8 9 12 12 11 13 15 12 12 14 14 16 16 15 20 27 29 28 29 35 42 53 74 84 77 71 69 68 68 69 70 66 60 59 61 60 59 59
24 26 27 28 30 34 38 31 24 24 25 23 19 19 23 26 35 44 38 21 12 10 10 9 9 8 8 10 9 9 8 7 7 9 9 8 8 9 9 9 9 11 14 12 10 11 10 11 12 11 10 11 13 14 13 12 12 12 13 14 19 24 24 21 22 28 36 36 26 24 34 49 68 78 72 61 54 56 61 64 65 61 57 60 63 61 59 59
22 24 25 26 26 30 32 26 23 26 24 21 21 24 30 37 41 37 24 13 13 12 8 9 9 8 9 9 8 9 9 8 7 8 9 9 10 10 10 12 12 15 19 16 12 13 12 12 11 13 14 13 14 16 15 13 12 13 15 19 25 31 31 27 28 29 35 37 25 20 39 63 69 64 64 66 62 55 52 55 58 55 54 59 59 57 56 58
20 22 22 22 22 23 25 23 23 28 26 22 24 26 33 46 45 28 14 11 12 10 7 8 8 8 9 8 8 8 8 9 8 8 9 10 11 10 9 9 9 14 18 15 13 15 16 14 11 14 17 14 15 18 18 16 16 16 17 23 30 34 33 33 33 30 31 31 23 26 51 73 72 59 58 67 68 58 49 48 52 51 53 56 53 53 56 62
18 20 19 18 20 21 21 23 24 28 28 24 28 30 35 46 41 20 11 11 9 7 7 7 7 7 9 8 8 8 8 9 9 9 10 9 11 11 8 8 7 9 12 13 14 15 19 21 16 13 16 15 15 16 17 16 16 18 17 19 26 28 31 35 32 29 32 28 19 30 56 72 72 60 51 55 57 52 50 50 50 50 51 52 50 52 60 67
17 18 18 19 22 22 22 25 25 29 30 26 30 34 35 38 30 16 13 12 8 7 7 6 6 8 9 8 7 7 8 9 7 8 10 9 11 11 9 8 7 7 10 15 17 14 17 19 15 13 13 13 14 13 13 14 17 18 14 17 23 22 24 27 24 22 24 23 26 41 59 66 63 55 53 59 55 46 48 49 50 52 52 57 62 65 69 71
16 17 21 22 24 24 24 26 28 30 27 27 39 41 30 25 19 13 12 10 8 9 7 7 7 8 10 9 8 6 6 7 7 8 10 9 9 9 9 8 7 6 10 16 19 17 18 16 12 13 12 11 13 13 11 14 22 23 18 19 19 14 17 21 22 22 17 26 47 60 63 61 59 62 67 64 53 48 51 50 50 57 63 70 77 78 78 78
18 19 22 22 23 24 22 23 28 28 24 32 51 46 22 13 13 10 9 8 8 8 8 10 9 8 10 9 8 6 6 8 7 7 9 9 10 10 9 9 8 8 10 15 18 16 19 18 11 11 13 10 9 11 11 11 17 20 19 18 14 12 16 18 24 28 20 32 56 62 61 63 68 74 72 61 54 54 54 52 53 59 66 74 80 83 83 82
25 25 25 24 21 17 15 18 22 23 24 32 43 37 18 10 10 8 8 8 7 8 11 13 11 9 10 11 11 7 7 10 8 9 10 9 13 13 9 10 9 8 9 12 16 14 15 20 15 9 11 10 6 9 13 12 12 13 12 12 14 19 23 22 25 27 30 48 69 74 73 70 70 71 62 52 54 56 54 54 57 57 64 75 81 85 88 85
38 34 26 20 15 11 11 16 18 21 27 30 31 28 18 11 9 7 8 8 7 11 15 14 12 11 11 12 12 9 9 10 9 11 12 12 15 13 9 10 10 9 9 10 13 14 14 21 20 10 7 10 10 12 16 16 13 10 9 10 12 17 21 22 22 20 35 66 82 83 84 82 83 84 71 56 51 55 60 60 60 59 61 69 74 77 82 83
36 34 28 16 11 10 10 13 17 22 28 27 25 20 13 10 10 8 8 8 8 11 14 14 13 14 13 11 12 11 10 10 10 11 12 12 14 14 10 10 10 10 9 9 11 12 14 21 23 13 8 10 13 14 14 14 13 11 13 13 12 14 13 16 18 11 27 68 85 81 83 85 85 85 80 70 58 55 61 63 63 62 60 61 63 64 69 72
32 31 30 16 9 11 11 15 19 22 24 23 20 15 10 11 12 9 8 8 8 9 10 12 14 14 13 12 13 13 12 11 11 13 14 12 14 16 12 10 11 9 10 12 14 14 19 26 24 17 12 12 13 12 10 11 11 10 12 13 13 15 13 17 24 15 22 54 68 72 85 84 73 68 69 69 61 55 58 60 62 63 60 60 61 61 64 66
41 35 26 12 10 12 12 19 21 19 22 22 16 11 11 12 11 10 10 8 9 10 9 11 13 14 14 14 14 13 13 15 16 16 15 13 15 15 12 10 11 9 11 16 16 17 21 24 24 22 17 11 10 9 8 8 9 8 10 11 10 13 13 18 28 35 45 55 51 61 82 81 69 66 65 60 54 52 54 57 61 63 61 61 62 61 62 63
40 36 22 8 11 10 13 29 32 22 18 15 11 10 11 12 12 12 11 10 11 12 12 13 12 14 15 13 14 14 13 16 19 17 16 16 14 12 11 10 10 11 15 18 19 20 20 22 28 31 25 16 10 9 10 8 8 11 11 10 10 10 11 16 24 39 58 63 58 71 88 87 81 76 65 53 47 48 52 55 59 62 60 60 62 63 62 62
40 40 23 9 11 10 16 29 31 23 16 11 10 11 11 11 12 13 13 12 12 11 16 16 11 13 14 12 15 18 15 17 19 16 16 17 14 12 11 9 11 14 14 18 25 24 20 26 35 35 30 26 20 18 20 16 11 12 11 9 11 9 10 17 21 34 55 61 60 76 89 84 76 68 58 52 51 50 51 53 55 57 60 59 60 61 61 63
43 40 21 9 10 12 15 17 16 18 17 14 14 12 11 12 12 12 12 12 12 11 15 15 10 11 12 11 15 15 12 16 20 17 16 15 13 11 10 10 12 11 12 28 39 28 19 29 39 41 37 35 34 33 30 24 15 13 12 10 10 8 12 19 25 42 65 67 59 70 84 76 58 52 53 55 56 54 50 50 51 52 56 58 57 58 59 62
46 40 25 16 13 12 14 11 10 16 17 21 24 15 11 14 12 11 12 12 12 11 13 14 10 12 14 14 17 17 14 14 17 19 17 15 14 11 9 10 9 11 23 39 35 18 18 29 37 42 39 33 36 37 28 20 16 13 12 10 10 10 12 19 31 50 64 69 67 66 72 71 58 50 50 47 47 49 46 48 53 53 54 55 54 56 58 59
48 39 25 24 24 20 19 14 11 15 15 20 25 16 11 13 12 12 13 13 13 11 13 15 13 14 18 18 21 23 22 18 18 20 18 16 15 11 10 10 7 14 32 33 18 13 26 33 30 29 28 23 24 23 15 13 14 12 11 11 11 12 12 17 30 44 54 69 79 68 59 62 56 48 47 44 42 43 42 44 48 51 53 53 53 56 58 59
40 31 19 23 29 24 21 16 14 15 12 15 18 13 13 15 13 13 15 14 13 11 16 22 18 15 16 20 28 34 33 31 29 30 27 23 19 13 11 11 8 11 19 17 14 19 28 31 24 18 19 19 16 13 12 11 12 11 11 12 11 11 14 15 19 29 46 67 76 67 57 55 48 43 44 44 42 42 41 39 39 43 47 48 49 51 51 53
37 36 28 28 29 23 17 13 13 13 14 22 24 16 15 18 15 13 14 17 17 13 17 23 20 16 15 21 35 44 42 39 39 41 39 32 24 19 16 15 13 11 11 13 18 22 26 31 26 17 18 19 15 14 13 10 11 12 11 11 10 10 12 11 13 28 48 61 61 58 58 54 47 43 43 40 39 39 39 39 38 40 43 43 45 47 47 48
43 45 41 43 38 24 14 11 18 24 23 27 31 21 14 16 16 14 13 17 21 19 18 20 19 17 17 22 32 37 35 35 38 42 41 34 28 26 26 25 19 15 13 15 18 20 26 31 23 18 26 25 15 13 12 10 13 12 10 11 10 10 11 10 18 40 55 59 56 57 63 63 51 44 43 42 40 39 40 42 44 43 43 44 46 47 48 49
41 43 46 55 50 31 20 16 23 33 31 26 27 23 16 16 18 18 17 14 16 19 19 18 19 18 19 24 28 28 26 27 30 30 28 27 25 24 28 28 22 21 22 21 20 22 26 30 25 25 34 30 18 15 14 11 12 12 12 14 10 11 14 10 18 42 55 58 62 64 68 65 51 43 44 43 42 43 43 44 47 48 48 49 50 51 52 53
43 47 47 55 55 39 29 26 24 29 30 23 20 18 16 18 19 23 28 19 11 14 16 15 19 24 28 31 30 27 24 22 22 21 19 19 18 16 21 22 17 21 25 23 26 28 26 29 31 32 36 31 19 16 14 11 17 20 17 13 10 12 12 7 16 39 50 53 61 66 66 60 50 45 45 44 44 47 47 46 48 49 49 49 48 48 50 53
Wind_Speed
17 16 16 16 16 16 16 15 14 14 14 14 14 13 13 13 13 13 14 15 16 17 17 17 16 14 13 13 12 14 17 17 13 8 11 10 9 10 7 6 6 11 12 10 13 11 10 11 12 14 12 9 6 4 6 4 3 2 0 1 0 1 2 4 5 5 4 4 5 2 2 3 8 4 1 2 1 3 6 5 11 16 15 17 25 38 41 37
17 16 16 16 16 16 16 15 15 14 15 15 14 14 13 13 13 13 14 15 15 17 17 17 16 13 12 11 11 13 16 16 13 13 17 10 8 10 8 7 7 10 13 15 16 14 11 11 13 13 9 5 4 6 8 3 4 3 1 1 1 3 3 5 4 3 3 6 7 5 4 2 8 8 2 3 4 4 6 10 15 17 17 20 25 33 37 37
16 16 16 16 16 16 16 16 15 15 15 15 15 15 14 14 14 14 15 15 15 16 17 16 15 13 11 10 9 11 13 12 9 10 12 8 14 15 10 10 10 10 14 18 17 15 14 13 15 12 7 4 5 6 9 1 3 2 1 1 3 4 2 6 6 4 5 8 9 7 3 1 5 8 4 4 4 1 2 9 16 17 19 20 20 25 31 32
17 17 16 16 16 16 16 16 15 15 15 15 15 15 15 15 16 16 17 16 16 16 16 16 14 12 10 8 8 10 10 7 4 4 2 2 13 17 16 14 11 11 14 18 16 16 17 15 13 9 6 5 6 7 7 4 4 3 3 2 4 5 4 6 8 9 10 11 9 8 6 3 4 5 4 6 3 4 2 4 16 20 20 20 18 21 24 24
18 17 17 17 16 16 16 16 16 15 15 16 16 16 15 16 17 17 17 17 17 17 16 15 13 12 9 7 6 7 6 2 1 3 2 3 8 14 17 16 13 12 14 16 14 15 16 14 10 7 5 4 6 6 9 10 6 3 2 2 5 7 5 5 9 12 12 12 9 9 9 5 4 3 3 5 4 3 1 4 18 21 18 20 18 19 20 20
17 17 17 17 17 17 17 17 17 15 15 16 16 16 15 16 17 17 17 16 17 17 16 15 13 11 8 6 4 4 2 0 3 3 2 2 7 12 16 15 13 12 13 14 12 12 13 12 9 6 5 4 6 7 8 14 10 3 2 3 5 8 4 5 9 11 10 12 9 8 8 4 6 4 3 5 4 5 1 6 17 19 18 21 19 18 17 17
18 18 18 18 18 18 18 18 18 16 15 16 16 16 16 16 17 17 17 16 16 16 16 15 12 9 6 5 3 2 2 5 11 6 3 4 8 13 15 14 13 13 14 13 12 11 10 10 8 5 5 5 7 10 7 14 11 5 2 4 7 8 7 8 9 9 9 11 9 9 8 5 5 4 4 3 4 7 4 8 18 18 19 21 17 16 15 15
19 19 19 19 19 19 19 18 18 17 16 16 16 16 16 16 17 17 17 16 15 15 15 14 11 7 4 4 2 2 3 8 10 4 4 5 9 14 16 15 14 15 16 15 13 11 10 9 8 6 5 6 7 10 6 12 5 4 5 4 6 5 8 11 8 7 9 9 9 10 8 4 6 6 3 1 5 7 7 11 19 18 17 17 15 15 15 14
20 20 20 20 20 20 20 19 19 18 17 17 16 15 15 16 16 17 17 16 15 14 14 12 9 3 1 3 3 3 2 8 8 2 2 5 8 14 16 14 16 18 15 15 15 13 10 7 8 7 5 6 8 10 3 9 3 6 8 7 5 3 8 13 9 9 9 7 8 11 8 3 8 8 3 4 3 4 8 16 19 17 16 15 14 14 14 13
22 21 21 21 21 21 21 20 20 19 18 17 16 15 15 15 16 17 17 16 13 12 12 10 5 1 1 2 2 3 2 7 4 1 2 5 8 15 16 13 18 19 13 13 14 13 10 7 7 7 6 7 7 9 6 5 7 9 11 10 6 3 8 11 9 11 9 7 7 10 8 3 3 5 2 3 5 5 8 18 17 16 15 14 14 13 13 13
22 22 22 21 21 21 21 21 20 20 18 17 16 15 15 15 15 16 16 15 12 11 11 8 3 3 2 3 2 4 5 8 5 3 4 6 11 17 15 13 18 18 13 12 14 15 14 13 9 5 4 3 5 8 7 2 6 12 13 12 8 6 9 9 11 11 9 6 6 9 9 4 2 4 2 6 8 6 9 19 16 15 14 13 14 12 11 12
23 23 23 22 22 22 22 22 21 21 19 17 16 15 15 15 15 15 16 13 10 9 8 6 2 4 2 3 6 9 9 9 10 10 8 8 11 14 13 14 18 18 15 11 12 16 16 15 12 6 3 3 4 4 5 7 1 8 10 11 10 10 9 9 12 11 8 7 9 10 8 4 2 3 1 4 11 8 9 18 16 14 13 12 13 10 8 10
23 23 23 23 23 23 22 22 22 21 19 18 16 15 14 14 15 14 14 11 8 8 7 3 4 4 1 2 10 13 10 8 11 11 9 9 9 11 10 14 18 17 17 13 12 13 12 14 11 6 5 5 4 4 7 9 5 6 4 6 8 9 4 6 8 11 9 9 13 8 4 2 2 3 3 2 9 11 10 15 14 13 12 11 12 9 7 8
24 24 23 23 23 23 23 22 22 22 20 18 16 15 14 14 14 12 12 10 6 7 6 3 6 4 2 5 11 10 7 5 11 8 10 12 12 12 11 14 18 17 17 17 18 13 9 12 10 5 4 5 4 7 9 7 4 4 2 4 5 6 5 5 3 8 11 8 12 6 3 4 3 4 4 1 4 9 12 14 12 12 11 10 10 9 8 8
24 24 24 23 22 22 22 22 23 22 20 17 15 14 13 13 12 10 10 8 5 6 4 4 7 4 2 8 12 7 3 4 9 9 10 13 14 12 12 16 18 17 18 18 16 12 9 7 5 2 3 4 5 6 5 4 3 3 2 4 4 5 5 2 3 5 11 10 8 6 3 4 5 6 6 5 5 4 8 13 12 12 12 12 9 9 9 8
25 25 23 23 23 23 22 22 23 23 19 16 14 13 12 10 8 7 7 5 5 5 5 3 7 7 2 4 5 3 5 6 7 8 9 13 12 10 12 14 14 16 16 13 8 8 8 2 1 1 3 5 4 4 4 4 4 4 3 4 4 8 7 4 3 10 11 12 5 5 4 3 6 7 3 6 8 4 3 7 11 12 13 13 8 8 9 7
25 24 23 22 23 23 23 22 23 22 17 14 13 12 9 7 6 5 4 2 3 3 4 5 5 6 5 5 4 4 8 10 10 10 11 12 10 9 11 9 7 9 8 6 5 4 3 2 1 1 2 4 3 3 3 3 4 4 4 5 3 10 10 6 4 7 8 10 6 6 6 3 8 10 3 3 8 8 4 3 5 6 9 12 8 7 9 8
25 24 22 22 22 23 24 23 22 21 16 13 11 8 7 7 6 5 3 0 1 2 5 10 6 2 4 8 8 9 11 12 12 11 11 10 10 10 10 6 3 4 4 4 5 4 2 2 3 2 3 4 4 4 4 5 6 6 7 5 3 9 10 10 6 6 8 8 6 6 6 6 9 12 8 4 6 9 5 3 5 4 4 6 8 8 9 9
24 23 21 21 21 22 23 22 21 19 16 13 9 7 8 7 6 4 4 3 2 2 3 3 6 2 3 7 12 13 11 12 11 10 11 11 11 10 10 7 4 5 4 2 4 5 3 2 4 3 4 5 5 6 6 9 11 7 6 6 5 8 8 12 10 9 11 7 5 5 6 9 9 11 11 7 7 9 6 6 6 5 5 2 3 8 11 8
23 22 21 20 20 21 21 21 20 17 15 12 8 7 7 4 2 1 4 6 6 8 7 5 8 7 8 6 8 13 10 13 10 7 11 12 9 8 8 6 5 5 4 3 5 6 5 3 4 5 5 7 9 10 11 12 14 11 6 6 5 8 8 13 13 12 12 7 3 6 9 11 10 10 10 8 8 9 8 8 7 4 3 3 2 4 10 9
23 22 20 19 20 20 20 21 19 16 14 11 8 4 4 4 4 3 1 6 11 13 13 13 11 11 15 13 7 11 7 7 7 6 11 13 7 5 5 5 5 4 5 6 6 5 5 5 5 7 9 10 10 11 12 14 13 11 7 8 5 8 9 12 14 13 11 8 7 11 11 10 10 10 9 8 8 7 8 10 8 5 1 1 2 2 5 8
23 21 20 19 19 19 20 21 18 15 13 8 5 2 6 8 8 8 6 4 9 12 14 15 14 11 15 12 3 12 6 4 6 6 11 12 7 4 5 6 5 4 6 7 5 4 5 5 6 9 10 10 11 10 12 14 11 8 6 7 6 7 10 9 15 17 11 6 7 11 11 10 9 8 9 8 7 6 7 9 9 8 5 3 2 3 3 6
22 20 20 18 19 19 19 19 17 16 14 8 6 5 8 11 10 12 7 4 7 10 11 13 13 10 8 4 4 8 4 5 6 6 11 11 6 5 6 6 6 6 7 7 5 4 4 5 9 11 10 10 11 10 10 11 8 7 5 5 5 7 9 7 14 20 15 9 9 11 9 8 8 5 6 8 7 7 6 6 6 7 7 5 5 4 4 5
22 21 19 17 19 18 19 21 17 16 15 11 11 10 11 12 10 12 6 4 6 7 9 11 10 8 6 2 4 5 4 4 6 7 13 10 5 5 6 6 6 6 6 8 9 7 5 7 11 11 11 10 9 10 10 7 5 6 7 7 4 5 5 3 12 16 10 5 10 14 8 3 6 6 7 8 7 6 6 6 5 4 4 4 4 5 5 5
22 20 18 17 17 16 21 20 12 14 14 11 15 12 10 8 8 10 6 2 4 4 7 9 7 5 6 5 8 6 5 4 6 7 14 10 8 5 5 5 4 5 7 10 10 8 7 8 11 12 11 11 9 8 8 6 4 4 8 9 5 5 3 2 12 14 6 1 8 13 7 0 5 8 9 8 8 7 6 5 5 4 4 4 4 7 6 4
21 19 18 16 14 17 18 10 9 18 14 11 14 8 4 6 8 9 4 1 3 2 4 4 3 4 5 6 7 3 4 5 7 8 16 11 11 5 4 3 3 5 8 9 7 4 6 9 9 11 11 11 10 7 7 7 4 3 6 8 6 3 7 8 9 9 7 7 12 10 7 3 5 6 9 9 9 8 7 7 6 5 5 6 6 7 5 3
21 19 18 15 14 15 11 7 15 20 10 5 10 9 6 6 8 7 2 2 3 2 4 1 1 4 4 5 6 2 1 4 6 9 15 12 10 4 4 4 2 5 5 4 3 3 7 10 9 9 11 9 7 6 8 6 4 4 6 9 7 4 6 10 8 5 3 8 9 7 8 6 3 6 11 11 10 8 6 7 7 6 7 8 7 6 5 5
21 19 18 14 13 14 12 13 17 13 9 11 16 13 9 8 7 4 1 1 1 1 1 0 1 3 4 5 7 5 5 4 6 7 12 15 11 3 4 7 5 5 6 4 4 4 8 9 10 8 8 7 7 8 7 2 2 6 5 5 6 5 8 9 8 6 4 5 5 5 8 7 1 3 10 10 9 9 6 7 9 9 9 9 8 7 6 5
20 19 18 14 12 13 13 14 12 9 12 14 13 11 9 8 4 1 2 1 1 1 1 1 2 3 4 5 7 8 8 3 3 4 9 13 11 4 3 6 7 8 8 7 7 5 5 7 9 8 5 5 7 8 8 4 3 7 9 6 2 5 10 10 6 5 5 3 5 7 6 6 3 2 7 8 7 9 9 8 8 9 9 9 9 9 7 5
20 18 18 16 11 9 10 12 14 12 13 12 11 9 8 6 2 1 2 0 2 3 2 1 1 4 6 5 6 8 8 2 3 4 5 5 8 5 2 4 5 6 7 8 10 8 5 5 7 7 5 4 2 3 6 8 6 7 7 5 4 4 7 7 3 4 3 1 6 11 9 7 6 3 4 6 7 8 8 7 8 9 10 10 9 8 7 5
19 18 18 17 12 9 7 9 12 13 11 10 10 9 8 3 1 2 1 2 1 3 4 3 4 6 7 6 5 5 8 5 5 6 4 1 4 5 3 4 2 3 6 6 7 7 8 7 4 2 2 0 2 1 5 8 7 5 4 2 3 4 1 1 1 4 3 3 5 9 9 7 5 5 6 5 7 9 9 9 11 11 10 9 9 8 8 6
19 19 18 18 16 14 11 9 10 15 13 9 9 7 5 1 2 2 1 1 2 1 1 4 8 6 7 6 5 6 6 4 5 3 3 3 3 3 3 4 2 1 4 3 3 4 7 6 3 3 3 3 1 1 4 4 4 3 1 2 3 2 2 2 1 2 2 3 4 5 10 6 2 5 6 5 5 8 9 9 11 10 9 9 9 9 8 5
18 19 19 19 18 17 16 13 12 13 13 11 8 5 2 1 2 3 1 1 0 1 4 2 8 5 6 6 5 7 6 3 6 3 2 6 5 4 6 8 6 5 3 2 3 4 4 7 4 6 4 3 4 2 2 2 2 3 1 2 4 1 1 2 1 1 1 4 2 10 13 5 2 6 9 9 6 6 6 8 9 8 8 9 8 8 7 5
19 19 19 18 19 19 16 13 10 10 12 11 6 2 2 2 3 5 3 2 1 2 4 1 6 5 5 6 5 7 6 4 7 7 4 5 4 4 6 8 10 8 3 4 4 2 3 6 3 5 5 7 7 4 4 3 2 4 2 1 3 2 3 3 1 2 2 5 4 9 9 4 5 7 10 11 9 7 6 7 6 7 7 7 6 7 7 6
18 17 17 18 20 17 11 8 6 8 11 8 3 2 2 1 3 5 4 3 4 3 6 5 2 4 5 6 6 8 7 4 8 8 5 5 4 4 6 6 10 9 3 2 2 0 5 4 6 6 4 8 9 6 5 5 2 3 2 1 3 4 4 3 4 5 4 2 1 3 4 3 4 7 7 7 9 8 8 8 8 7 8 7 6 6 5 4
17 16 15 17 18 15 10 6 4 7 9 4 1 2 2 1 2 4 3 3 6 6 10 8 1 2 3 3 5 9 7 3 7 6 3 6 6 3 5 2 4 8 3 1 2 0 3 3 4 9 6 5 6 5 5 5 2 3 3 3 5 6 4 2 4 5 5 3 1 2 7 6 5 7 4 3 9 10 8 9 11 10 10 9 7 5 4 3
17 14 12 15 19 17 12 6 6 9 7 2 1 2 4 0 3 6 3 5 7 5 7 5 1 2 1 1 4 5 6 2 5 6 2 6 4 3 2 5 5 2 4 5 1 2 2 3 6 5 7 5 2 4 6 7 3 3 3 3 4 3 1 2 1 2 2 4 2 5 10 9 5 5 4 6 10 11 9 10 12 12 10 7 6 5 4 4
15 10 11 18 18 13 8 9 10 9 4 2 1 3 6 2 3 5 4 5 8 5 6 5 3 4 3 2 3 1 3 1 2 3 1 4 2 6 7 6 8 7 6 5 1 4 4 2 6 2 4 4 2 3 5 7 6 2 0 2 1 1 1 1 1 2 2 5 3 3 3 2 2 3 8 12 13 12 11 13 13 13 10 6 6 6 4 4
10 4 7 11 9 8 8 13 11 6 3 3 1 2 5 3 4 5 4 5 7 6 4 4 3 4 5 5 6 5 3 3 2 2 2 2 0 5 7 4 6 9 10 6 2 3 3 1 2 2 1 2 1 1 2 5 5 1 4 5 1 3 1 1 2 3 3 5 4 2 2 3 2 1 3 9 13 12 12 12 11 11 11 8 6 6 3 3
6 2 3 3 7 9 6 9 7 4 3 2 2 2 2 5 4 4 4 5 4 3 2 4 6 4 4 5 5 5 3 4 5 3 1 5 3 3 7 7 6 9 10 9 5 3 2 1 2 2 2 1 1 1 2 3 2 2 2 4 3 1 0 1 3 3 4 5 5 5 1 2 1 0 0 5 10 11 11 12 10 10 10 9 8 7 5 3
5 3 3 4 2 7 6 6 3 3 2 2 4 2 3 3 4 4 3 4 3 1 2 5 4 4 3 5 4 3 2 4 4 4 3 6 5 3 8 8 6 6 8 6 5 5 3 1 2 1 2 2 3 3 4 6 4 1 3 4 4 3 2 2 4 3 2 5 6 7 5 1 1 3 4 4 8 10 12 12 10 9 10 9 9 8 6 5
3 2 4 5 2 4 5 3 2 3 3 1 4 3 2 3 3 4 3 4 4 3 3 2 2 4 4 2 2 2 1 2 5 6 4 5 5 4 6 7 6 6 5 3 4 5 3 1 1 3 3 3 7 8 9 11 6 3 1 3 4 4 3 3 3 1 3 5 6 6 6 3 2 3 5 6 9 11 11 12 11 10 10 9 8 8 7 8
2 5 8 2 6 6 3 2 4 2 2 1 2 1 2 3 5 7 5 4 4 3 3 1 1 3 4 2 2 4 3 4 6 6 4 2 3 4 6 8 9 8 5 3 4 5 5 2 1 3 5 4 5 8 7 5 1 3 3 4 5 4 2 2 4 4 3 4 5 5 4 2 0 1 4 8 12 13 12 12 12 10 9 9 8 8 8 9
3 6 5 3 8 6 3 1 3 1 2 1 0 3 2 2 5 7 6 5 4 3 4 3 2 3 1 4 4 5 5 2 4 2 1 2 0 2 5 7 8 7 4 2 2 3 4 3 2 3 4 5 4 2 2 3 4 2 3 6 7 2 3 2 2 4 4 5 7 6 4 2 4 7 5 7 11 12 14 14 12 10 9 9 9 8 8 8
3 4 3 4 10 8 2 1 2 3 2 3 4 3 2 3 3 2 5 5 4 4 4 3 2 0 1 4 3 3 4 2 2 1 3 1 1 2 4 5 5 4 4 4 5 3 2 2 2 3 1 2 2 1 1 3 3 2 4 9 9 2 7 4 2 5 4 4 6 7 6 3 8 12 9 8 9 11 14 15 11 10 10 9 9 8 7 7
2 2 3 1 3 2 0 2 2 3 3 3 4 4 2 1 4 3 3 4 4 5 4 3 4 5 5 2 1 0 3 1 4 2 3 1 3 2 3 3 3 4 3 7 6 3 3 2 2 2 3 2 2 3 2 4 2 1 7 10 6 5 8 4 4 4 4 5 4 8 13 10 9 11 12 11 11 11 13 14 12 10 10 9 10 9 8 8
1 2 3 2 3 3 2 3 3 4 3 2 1 4 4 2 4 4 2 4 3 4 3 5 7 5 5 5 3 3 6 4 4 1 2 1 3 3 2 4 2 3 4 5 4 3 2 2 3 3 2 3 5 4 7 7 3 5 11 10 2 7 8 6 5 5 7 7 4 6 15 15 11 12 13 12 11 10 11 12 11 11 10 10 10 11 11 11
3 3 4 4 3 3 4 4 4 4 6 5 2 4 5 5 5 4 4 4 3 1 2 4 7 4 5 6 4 4 7 7 5 5 5 4 2 2 1 2 2 4 5 3 6 4 1 2 6 7 4 4 6 6 6 7 5 8 12 9 5 6 6 3 2 4 6 6 7 9 13 13 10 11 13 12 11 11 10 10 10 12 11 10 11 13 13 12
5 3 5 7 5 3 1 2 4 4 6 4 3 5 6 8 8 6 5 6 5 6 4 3 4 6 6 6 6 3 4 4 4 5 5 6 6 3 1 1 2 4 4 4 4 2 1 2 6 7 6 7 8 6 3 7 7 7 8 6 6 9 6 3 3 7 10 10 13 14 12 10 9 10 12 11 10 10 10 9 10 12 11 10 11 12 12 12
5 3 5 6 6 4 1 1 2 4 3 1 2 5 5 7 7 5 5 6 6 7 6 5 5 7 8 8 6 4 4 3 2 1 2 5 6 4 4 3 3 5 5 4 2 1 3 3 6 4 4 7 9 4 3 6 5 5 7 6 7 7 7 6 5 11 13 11 13 15 13 9 6 8 10 9 10 11 10 9 10 10 11 11 12 12 11 11
9 8 7 5 4 5 4 3 3 4 3 3 3 4 5 7 7 4 3 5 5 6 7 9 8 5 5 7 6 5 6 5 5 4 5 5 5 3 2 3 4 5 4 3 3 2 3 3 6 4 3 3 7 7 4 4 5 4 6 6 4 2 3 5 3 9 13 13 13 13 11 7 6 9 11 10 11 12 11 9 8 9 11 12 11 11 11 10
13 11 9 4 3 4 4 3 4 4 2 2 2 2 3 6 7 5 3 3 5 5 4 6 8 5 3 6 5 7 8 7 6 6 7 6 6 5 2 1 2 4 4 4 3 2 2 3 4 4 2 2 5 8 7 4 3 4 3 4 5 1 1 5 2 11 16 15 13 9 7 7 8 10 11 10 11 12 10 9 9 9 11 12 11 11 10 9
Wind_Direction
344 343 342 339 338 338 338 337 335 332 330 328 325 322 319 319 319 318 318 317 318 319 320 321 322 327 327 327 327 327 325 320 322 288 237 246 233 209 224 241 210 189 190 190 194 201 194 204 226 230 232 230 226 183 118 101 136 107 6 108 175 214 171 184 200 199 148 144 170 179 247 154 119 124 201 116 327 214 170 165 133 125 132 130 130 140 147 149
343 342 340 338 338 336 336 335 333 331 328 325 324 322 318 318 318 318 317 315 316 318 322 322 321 324 325 330 334 333 330 320 309 270 252 246 193 202 224 220 206 182 183 190 199 204 196 199 212 220 226 220 223 170 124 129 180 147 257 87 226 231 163 174 194 206 167 153 159 170 213 189 126 139 153 140 197 210 155 148 132 126 131 128 133 139 144 150
341 340 338 338 337 336 335 332 331 329 325 323 322 320 319 317 318 318 316 315 317 321 323 322 321 322 326 334 340 341 332 316 295 262 266 252 202 211 225 218 205 186 191 194 198 207 207 207 206 208 214 216 232 167 121 148 221 151 176 128 252 257 208 176 165 192 196 156 150 158 166 154 141 131 121 157 171 96 99 141 132 132 135 136 141 138 143 148
341 339 338 338 335 334 332 330 329 326 323 321 320 319 319 317 317 317 315 317 321 324 323 323 324 321 328 340 349 351 327 305 275 232 291 212 198 205 214 218 209 199 204 200 202 217 225 227 210 197 205 221 222 175 135 179 209 160 178 196 231 249 254 201 168 174 176 151 146 149 139 161 151 111 139 161 119 67 357 164 137 137 140 140 142 141 146 144
341 339 339 337 335 334 330 328 326 323 320 318 318 317 317 315 314 313 316 321 324 325 322 321 324 319 329 344 360 357 326 336 136 194 116 115 178 190 205 214 214 211 207 204 218 236 246 253 231 198 206 233 236 193 151 172 183 139 210 213 210 230 229 203 175 164 161 148 143 145 148 161 131 103 152 133 115 114 330 181 142 137 142 142 142 145 147 140
341 339 338 336 334 332 329 326 323 321 317 314 315 314 313 312 310 312 315 321 324 324 321 320 320 320 329 341 360 349 305 38 324 274 181 161 172 184 199 207 214 211 200 202 225 245 256 259 240 211 210 221 244 245 166 164 171 146 255 224 218 241 213 176 166 159 156 143 142 144 134 131 133 145 125 96 140 140 159 186 142 136 143 140 143 147 145 143
342 339 336 334 332 330 328 326 323 320 314 311 311 310 310 308 308 312 314 320 324 321 320 318 315 319 329 342 358 311 230 270 292 277 216 205 184 191 197 203 210 196 189 200 216 234 251 245 231 218 223 221 227 246 187 155 178 174 163 215 232 242 193 161 148 157 161 139 137 127 111 135 149 133 106 110 175 149 198 188 139 136 144 141 146 147 142 146
343 339 336 334 331 330 329 326 325 321 315 311 309 308 307 308 311 312 313 319 321 320 319 316 314 319 337 354 330 249 228 250 261 232 198 200 187 195 191 195 201 186 186 201 205 218 244 237 227 226 227 233 236 246 157 124 197 206 145 204 242 246 171 143 125 163 166 137 129 120 116 141 107 75 37 256 184 167 198 168 136 139 144 142 148 143 144 151
342 339 337 335 333 331 330 327 326 322 319 315 311 309 307 309 312 310 313 317 319 319 316 313 315 325 24 337 290 275 235 208 219 208 191 188 184 183 178 184 187 180 187 206 214 228 245 230 220 231 240 251 263 272 159 118 219 211 173 187 203 219 145 128 135 180 162 128 132 129 129 120 101 99 28 315 228 210 186 151 138 145 146 147 149 144 153 155
342 340 337 336 334 331 330 328 325 325 325 322 316 312 310 311 310 310 313 314 317 315 312 311 310 116 161 280 249 283 205 163 176 230 176 169 170 165 164 175 177 177 188 203 216 235 247 239 225 226 241 259 270 273 250 176 181 182 177 170 166 157 127 130 164 170 132 110 134 127 117 89 106 126 97 233 233 266 171 146 143 148 148 152 149 149 160 158
342 340 338 337 335 333 332 329 326 327 329 326 321 316 313 311 308 310 310 312 316 307 304 304 281 146 228 256 255 267 192 150 120 124 155 156 166 159 154 172 177 181 193 199 212 229 241 247 252 246 234 282 287 262 268 277 167 178 178 162 157 124 123 160 178 153 124 117 130 112 103 79 60 116 139 167 177 256 178 148 148 150 150 153 149 154 165 164
343 341 339 338 336 335 334 331 328 329 329 327 322 317 314 311 308 309 307 311 313 297 292 292 189 148 233 257 242 234 202 172 132 129 161 164 168 163 154 175 183 188 201 208 214 223 237 252 263 269 275 320 298 263 298 320 270 196 184 154 152 124 127 178 170 152 140 139 142 119 96 66 39 100 299 137 148 227 192 149 152 151 153 151 148 158 167 169
342 341 340 338 336 335 336 333 329 329 330 326 321 317 312 309 308 306 305 310 306 285 279 258 164 159 242 263 243 241 244 210 145 135 169 172 174 176 175 183 188 201 216 235 246 236 238 253 267 285 303 310 296 329 323 303 286 239 198 139 146 122 143 212 174 153 131 141 163 145 93 109 62 82 313 3 147 204 188 149 153 152 153 148 148 165 166 164
341 341 340 338 336 335 335 334 331 329 330 326 320 316 311 309 307 304 305 304 286 265 258 196 161 156 201 258 272 273 276 209 156 163 178 174 180 182 194 192 189 206 224 244 263 275 258 241 260 293 309 307 300 332 324 296 280 259 215 163 160 127 177 234 219 154 125 160 180 133 92 158 120 145 220 328 136 198 178 150 154 152 147 143 152 166 159 159
341 340 339 337 335 333 334 335 332 330 329 325 318 315 312 309 305 306 306 291 257 242 224 184 182 184 268 271 289 292 242 178 167 187 189 186 188 181 194 195 190 206 224 238 254 295 306 248 247 275 291 290 279 296 299 291 283 254 223 210 180 126 160 142 311 216 143 168 191 100 102 164 141 171 185 140 126 190 166 151 156 152 141 144 162 165 150 157
340 339 338 336 333 331 332 335 334 331 330 322 317 316 311 314 317 318 314 274 236 205 170 185 200 203 278 294 293 248 205 226 207 196 198 203 200 181 186 191 194 207 223 239 250 304 318 302 316 308 277 274 254 252 270 283 268 229 201 226 180 123 129 111 278 245 164 154 181 111 128 166 142 155 165 137 128 105 129 156 161 154 142 147 171 163 141 149
338 338 336 334 331 329 330 334 336 334 331 322 318 319 314 317 323 329 329 259 230 200 197 270 243 207 256 295 302 240 207 225 223 203 199 213 213 179 173 182 194 205 214 238 236 267 301 90 75 310 240 260 257 229 238 247 239 215 201 238 189 125 125 137 199 230 171 153 169 134 130 152 140 137 137 145 122 108 118 149 145 142 139 149 168 153 135 153
337 336 334 332 330 328 328 332 337 335 331 325 319 326 327 311 303 316 327 139 86 285 269 280 274 208 254 256 247 227 207 204 208 201 189 213 223 175 162 178 182 191 194 229 222 211 219 145 164 217 208 234 257 225 206 224 226 194 185 217 173 126 130 141 156 201 185 162 151 131 120 136 138 131 135 173 138 120 127 106 85 51 74 145 169 150 138 162
336 335 332 330 328 327 327 329 335 334 330 327 321 320 318 297 284 284 251 209 141 259 281 238 205 200 302 239 217 222 212 184 187 196 180 208 225 169 161 188 182 194 189 185 198 187 201 185 177 209 219 216 226 228 228 236 243 228 198 214 170 135 140 145 154 195 186 150 128 136 129 137 142 134 138 164 149 125 121 99 82 50 25 8 179 152 146 169
338 335 332 330 327 326 325 326 330 330 327 330 337 326 310 297 276 229 219 219 211 236 268 250 212 241 298 297 217 214 197 166 175 198 186 206 220 152 160 197 180 197 206 186 193 187 195 208 196 207 219 220 217 222 240 249 254 267 277 267 197 144 145 143 151 190 176 133 175 172 143 145 147 142 140 138 129 124 118 101 89 76 22 345 327 162 155 168
339 336 333 330 327 326 325 324 325 326 325 327 340 323 297 329 355 18 274 231 226 227 249 264 248 239 262 276 221 181 160 159 187 198 185 196 201 140 153 196 182 186 216 222 212 181 190 216 214 212 216 225 227 218 231 248 256 268 279 282 253 151 145 141 149 188 173 131 185 173 144 149 148 141 138 126 120 123 119 117 125 137 150 342 332 273 170 170
342 339 335 330 328 327 324 322 321 319 315 314 323 267 267 303 332 344 334 275 253 235 233 250 259 251 254 270 175 139 132 173 204 194 171 175 188 170 155 182 203 189 199 226 230 178 192 225 224 225 222 220 237 232 226 238 249 264 260 271 272 139 136 150 156 178 177 134 173 163 141 144 136 127 135 130 114 116 126 134 150 163 170 176 204 264 252 189
344 339 336 333 328 327 325 323 322 312 300 281 248 232 268 296 326 336 321 288 287 262 234 229 246 257 247 281 88 135 177 185 201 201 166 169 197 198 173 181 212 208 195 208 220 194 183 217 224 234 239 221 231 243 239 235 234 248 245 263 272 139 139 164 165 177 179 159 161 150 130 122 112 112 136 123 102 107 116 114 135 165 167 178 199 209 248 221
345 341 338 334 327 327 327 324 320 308 298 275 256 257 279 300 338 351 333 271 285 277 247 215 218 246 239 240 126 168 240 193 205 196 159 172 208 193 198 198 204 220 213 204 212 223 213 204 208 225 245 238 231 236 241 240 223 231 234 253 263 151 147 157 163 178 173 149 158 138 107 92 131 146 140 116 104 111 109 106 124 164 162 170 210 217 230 239
345 342 337 332 325 325 327 325 325 323 311 268 255 262 281 308 353 354 342 278 267 260 238 205 190 228 231 200 157 174 246 221 231 190 151 182 221 189 208 209 200 219 218 214 213 224 234 215 196 206 230 242 243 236 239 241 232 236 223 239 254 137 157 203 165 165 131 104 183 141 108 260 164 145 136 128 131 138 139 148 162 163 167 176 202 226 224 235
345 340 334 329 318 320 330 329 331 333 315 251 252 268 309 343 358 342 327 272 275 213 184 178 166 202 202 191 170 178 257 228 233 182 148 183 230 226 230 212 189 220 222 223 218 209 233 235 210 196 206 228 240 242 242 226 216 249 201 217 260 153 175 212 188 168 142 169 189 159 121 146 169 150 144 141 138 144 155 174 189 166 168 188 201 228 217 213
344 337 331 324 313 323 335 314 323 329 314 295 322 345 8 346 346 346 323 232 263 158 142 166 208 188 176 184 180 162 275 194 201 177 147 171 221 245 257 240 195 221 240 234 232 204 207 234 239 201 191 214 232 236 243 226 204 242 177 176 229 244 208 204 197 227 198 154 170 160 112 118 171 161 148 142 131 137 158 173 192 190 180 189 198 222 215 203
342 336 328 321 311 316 317 305 317 318 304 342 352 350 350 324 324 352 311 290 333 110 152 154 118 167 181 191 198 229 260 197 168 161 148 166 195 213 234 256 273 259 263 253 242 217 189 217 249 227 192 198 217 220 228 212 203 256 245 186 198 222 241 216 186 216 214 139 157 154 113 104 100 135 137 140 137 150 177 180 187 196 191 189 191 204 211 201
340 334 325 318 307 309 320 313 304 297 306 330 343 338 334 319 324 29 274 319 63 242 229 104 105 176 199 191 204 237 257 244 127 146 153 167 191 213 232 266 297 296 282 265 250 236 189 203 237 244 219 201 210 203 196 179 194 248 270 285 270 221 235 230 197 186 177 151 168 168 137 110 108 142 140 145 157 168 184 189 186 193 193 189 187 189 187 178
336 331 322 318 311 312 333 312 289 300 309 311 320 317 299 298 329 276 268 93 151 184 152 56 90 175 196 191 203 236 246 233 104 173 183 170 184 197 267 277 290 308 301 272 253 255 271 254 239 246 236 216 181 154 195 215 217 230 241 264 312 281 230 220 199 122 118 244 186 172 163 127 129 187 181 164 175 176 176 182 185 192 191 179 174 175 164 162
331 325 317 312 306 299 308 290 295 324 326 305 307 293 274 272 221 258 344 42 289 177 173 167 140 167 197 202 202 222 232 207 163 185 183 129 182 185 258 279 265 311 302 273 248 256 274 268 243 240 254 54 63 144 230 235 230 230 215 197 286 304 348 156 131 91 112 238 214 168 136 102 123 187 203 177 163 171 177 178 181 185 178 163 163 168 162 163
323 318 309 303 298 284 272 273 306 329 326 309 302 284 269 239 223 254 62 355 290 158 226 156 143 180 204 207 214 197 224 223 153 170 138 145 217 195 206 234 161 213 282 265 224 248 268 266 207 114 39 13 34 262 269 264 240 226 195 174 220 299 33 85 128 123 151 228 240 125 94 70 67 145 152 134 139 183 186 171 174 175 158 152 163 166 159 148
318 312 302 299 297 284 276 286 302 312 311 304 295 278 288 13 270 279 43 350 258 190 301 131 140 189 194 199 219 183 212 237 136 149 175 172 203 203 209 227 208 205 236 239 231 214 243 274 230 141 129 204 210 217 256 258 200 196 214 161 168 154 90 120 106 121 185 257 216 100 92 98 137 128 140 138 150 189 169 144 158 161 149 150 157 156 143 116
315 307 300 300 297 290 284 282 279 285 297 301 291 270 325 339 291 301 341 4 313 223 280 192 146 163 178 212 223 171 193 229 167 172 188 186 202 195 207 229 230 234 236 231 246 179 217 266 221 151 139 172 196 226 249 260 179 181 255 198 178 193 135 130 131 138 204 256 188 118 109 145 156 136 139 139 144 154 129 117 131 132 135 141 137 132 122 111
314 307 307 301 293 294 281 251 243 261 272 284 290 280 314 316 294 321 353 346 330 339 319 306 174 152 175 219 226 185 184 214 196 186 179 201 212 191 201 216 225 236 252 235 255 132 243 238 146 166 172 158 183 225 247 259 231 189 246 270 211 205 153 160 193 180 187 240 218 107 103 122 120 97 97 127 137 133 125 119 114 101 96 92 80 83 88 100
318 312 308 295 288 288 269 231 205 241 257 283 344 277 257 226 317 332 344 320 323 330 316 305 239 151 179 209 234 202 177 175 200 191 179 207 210 196 199 195 218 219 186 58 311 317 240 257 169 186 179 139 180 223 241 250 238 191 221 248 234 209 168 165 205 198 181 147 78 104 112 113 108 86 72 179 136 116 112 109 103 89 80 79 72 70 65 47
322 315 298 280 277 273 260 228 203 218 238 291 72 284 283 6 356 326 328 319 310 319 318 307 98 41 316 229 255 196 148 118 194 188 196 203 212 351 18 34 15 229 135 84 359 357 67 314 289 203 153 120 187 249 268 267 257 198 206 265 287 254 181 97 91 246 177 122 127 139 131 134 133 124 184 186 129 111 106 95 90 85 80 84 86 71 43 6
321 311 285 270 258 246 216 183 200 218 228 261 257 315 309 26 36 325 337 321 314 5 0 329 47 20 334 317 322 40 95 24 187 199 267 182 185 7 21 25 19 20 31 52 38 348 30 346 316 347 124 137 178 231 262 262 257 220 164 314 327 219 257 93 116 238 134 110 111 85 93 126 110 144 175 156 130 113 99 85 80 81 78 77 84 71 32 345
311 277 283 268 212 178 178 179 195 231 244 259 264 316 312 359 39 355 355 319 328 32 13 320 37 6 344 12 354 348 356 337 356 311 311 96 94 358 29 15 359 13 5 360 1 343 17 91 292 324 119 142 147 150 205 253 263 13 12 321 232 151 179 155 203 226 130 117 137 116 316 289 22 27 166 132 118 108 95 88 81 78 77 70 76 78 53 332
302 264 283 263 149 137 174 188 196 256 258 276 278 233 327 355 8 5 351 326 339 27 359 1 16 343 356 12 329 338 350 299 312 307 338 56 46 10 34 20 347 357 354 346 346 347 6 342 268 219 179 224 231 164 203 253 279 68 20 297 272 299 286 224 268 244 145 126 139 129 115 289 324 102 91 88 98 99 95 94 86 78 78 71 67 65 49 23
296 316 260 261 98 116 170 202 219 249 239 311 305 331 40 343 327 347 342 341 343 330 68 46 349 314 29 12 331 13 17 284 321 9 18 38 54 41 18 2 337 347 347 338 348 360 358 314 314 300 197 214 175 170 229 251 260 203 186 229 249 256 227 241 276 273 132 118 140 137 121 142 214 152 141 108 105 104 99 97 92 86 82 71 64 60 46 44
242 318 261 246 163 150 194 233 264 220 182 282 301 348 10 286 323 0 350 354 350 345 68 96 296 333 26 13 312 326 2 7 23 30 33 42 54 41 358 336 332 346 343 342 6 358 339 280 304 310 286 218 180 182 211 231 252 292 248 242 248 230 209 226 242 285 38 69 107 114 114 136 157 138 150 145 124 114 107 104 99 92 85 75 66 61 53 51
250 299 292 268 154 193 231 266 287 273 136 298 290 18 333 324 5 3 359 21 10 2 17 30 98 44 11 18 352 312 329 59 51 35 26 22 37 18 349 352 4 3 357 2 357 346 339 328 353 333 316 282 198 185 192 206 284 339 290 266 259 248 233 181 163 135 100 109 111 94 98 122 10 220 184 148 129 123 116 111 109 105 97 88 76 62 56 53
298 273 275 119 152 212 261 223 272 322 106 284 322 120 110 38 15 341 341 13 11 12 16 9 121 147 57 63 56 333 328 54 96 87 316 284 311 5 358 9 16 15 26 21 325 334 339 326 37 34 331 331 359 31 29 7 357 330 282 273 265 280 49 80 124 84 89 124 118 106 105 131 159 178 171 122 120 124 118 115 116 114 108 100 90 76 66 61
308 263 250 160 178 206 253 301 312 5 30 1 11 46 106 108 82 329 314 343 354 354 5 350 316 345 93 117 123 314 318 32 85 237 246 223 93 43 18 21 27 30 17 333 308 309 304 303 45 61 21 16 19 14 5 328 301 292 296 277 266 353 61 81 92 58 71 115 117 117 120 143 161 155 138 118 125 126 119 118 117 113 114 111 103 92 83 75
328 290 301 276 200 194 286 311 13 46 34 35 11 351 352 93 94 77 327 345 9 347 341 333 337 9 22 10 109 340 281 191 124 201 248 154 101 60 357 348 66 71 330 309 315 320 306 317 72 87 55 31 240 225 283 293 262 280 287 270 269 40 54 73 92 90 118 117 114 140 142 153 167 144 132 136 138 126 118 119 119 118 117 113 106 96 82 73
296 283 330 7 332 352 15 345 30 65 32 38 336 317 339 19 75 81 34 13 357 308 333 358 343 358 17 360 33 34 339 2 96 137 291 352 89 85 325 302 59 55 309 320 17 27 345 346 3 8 3 288 277 324 345 326 7 7 316 298 349 48 43 37 61 126 142 111 98 156 147 149 163 147 135 135 129 115 112 118 123 125 125 123 120 113 101 87
320 303 357 26 322 337 33 353 351 47 34 19 354 328 360 30 43 56 40 6 333 307 49 359 339 357 45 42 54 26 360 17 33 7 356 357 15 116 215 272 39 354 317 29 57 38 5 357 347 341 325 284 290 311 329 332 17 11 335 325 358 39 60 45 27 124 131 121 136 157 148 140 143 135 129 129 126 121 119 121 122 121 123 124 116 110 105 98
354 333 349 2 336 325 51 312 316 49 52 19 2 3 18 39 42 47 38 357 360 45 39 324 353 21 32 62 87 59 18 32 23 3 357 343 336 351 40 27 39 353 344 51 65 49 50 353 341 343 347 336 305 271 303 352 9 4 341 353 24 22 29 357 357 88 101 117 132 135 131 125 122 120 122 125 122 117 112 110 108 109 111 108 99 94 92 87
359 348 340 341 335 326 299 275 352 57 60 57 37 7 13 43 38 39 43 6 4 36 11 339 21 26 22 46 76 94 76 58 46 13 326 335 340 360 10 351 359 3 4 30 29 73 86 347 327 3 21 341 318 305 3 350 333 328 331 359 40 18 347 350 45 98 107 113 121 120 114 110 110 111 112 113 111 108 106 106 106 104 101 94 91 91 88 81
345 337 340 317 317 337 326 337 55 76 35 24 48 7 16 58 40 8 39 29 15 24 5 358 9 12 46 59 55 60 54 30 20 9 348 340 339 358 8 329 350 3 358 19 9 10 57 350 326 19 59 326 316 321 313 275 274 310 323 325 360 25 332 343 54 117 122 121 119 116 115 121 127 114 108 110 111 106 100 96 96 98 97 92 88 85 86 86
354 339 345 330 298 324 317 338 41 80 83 33 53 5 27 72 59 18 13 58 59 44 3 359 5 1 64 79 44 20 9 355 356 352 340 333 324 330 1 307 357 2 344 11 25 353 21 358 331 11 31 299 292 296 289 266 275 299 286 290 314 12 20 326 7 121 129 134 132 131 135 134 128 121 120 122 113 104 99 92 90 97 99 97 94 87 85 87